Location: Pasadena-CA
(34.1440°N, 118.1100°W)
Time: 05:37:22
(UTC-07:00)

NOAA 19 - Pass Details

Date: 05 July 2022
Orbit: 840 x 861 km, 99.1° (Epoch: 15 August)

Event Time Altitude Azimuth Distance (km) Brightness Sun altitude
Rises 21:36:48 0° 213° (SSW) 3,415 8.3 -15.9°
Reaches altitude 10° 21:40:33 10° 239° (WSW) 2,480 7.8 -16.4°
Maximum altitude 21:43:07 13° 267° (W) 2,247 8.0 -16.8°
Drops below altitude 10° 21:45:42 10° 296° (WNW) 2,481 8.8 -17.2°
Sets 21:49:28 0° 322° (NW) 3,417 10.1 -17.8°
